Regional Weather Roundup
Issued by NWS Wilmington, NC

Home | Current Version | Previous Version | Text Only | Print | Product List | Glossary On
Versions: 1 2 3 4 5 6 7 8 9 10 11 12 13 14 15 16 17 18 19 20 21 22 23 24 25 26 27 28 29 30 31 32 33 34 35 36 37 38 39 40 41 42 43 44 45 46 47 48 49 50
000
ASUS42 KILM 291313
RWRILM
RWRILM
REGIONAL HOURLY WEATHER ROUNDUP
NATIONAL WEATHER SERVICE WILMINGTON NC
900 AM EDT WED JUL 29 2015

NOTE: "FAIR" INDICATES FEW OR NO CLOUDS BELOW 12,000 FEET WITH NO
SIGNIFICANT WEATHER AND/OR OBSTRUCTIONS TO VISIBILITY.

...............WFO WILMINGTON COUNTY WARNING AREA...............

......COASTAL NC AND SC COUNTIES......

CITY           SKY/WX    TMP DP  RH WIND       PRES   REMARKS
WILMINGTON     SUNNY     81  73  76 NE5       29.99R
N MYRTLE BEACH SUNNY     81  73  76 NE7       29.99R
MYRTLE BEACH   NOT AVBL

......INLAND NC AND SC COUNTIES.......

CITY           SKY/WX    TMP DP  RH WIND       PRES   REMARKS
LUMBERTON      SUNNY     81  72  74 E6        30.01R
ELIZABETHTOWN  SUNNY     78  73  83 CALM      30.01S
WHITEVILLE     SUNNY     79  73  82 NE5       30.01R
FLORENCE       MOSUNNY   80  72  76 E3        30.01R
DARLINGTON     MOSUNNY   81  72  74 E5        30.03R

....................REST OF NORTH CAROLINA......................

.........EASTERN NC.........

CITY           SKY/WX    TMP DP  RH WIND       PRES   REMARKS
CAPE HATTERAS  SUNNY     83  70  64 E8        30.01R
JACKSONVILLE   SUNNY     81  70  69 NE6       30.01R
MOREHEAD CITY  SUNNY     82  74  76 E9        29.99S
KENANSVILLE      N/A     80  72  77 CALM      30.03R
NEW BERN       SUNNY     81  72  74 E5        30.02R
ELIZABETH CITY SUNNY     82  73  74 SE8       30.03R

.........CENTRAL NC.........

CITY           SKY/WX    TMP DP  RH WIND       PRES   REMARKS
RALEIGH DURHAM PTSUNNY   79  72  79 S6        30.04R
ROCKY MOUNT    MOSUNNY   81  72  74 S5        30.03R
ROANOKE RAPIDS NOT AVBL
FAYETTEVILLE   SUNNY     80  72  76 E5        30.01S
HOFFMAN        MOSUNNY   79  71  78 S2        30.03R

.........WESTERN NC.........

CITY           SKY/WX    TMP DP  RH WIND       PRES   REMARKS
CHARLOTTE      CLOUDY    77  71  82 S6        30.05R
GREENSBORO     PTSUNNY   77  72  84 SW5       30.05R
HICKORY        NOT AVBL
BOONE          NOT AVBL
ASHEVILLE      NOT AVBL

.....................REST OF SOUTH CAROLINA.....................

.........EASTERN SC.........

CITY           SKY/WX    TMP DP  RH WIND       PRES   REMARKS
CHARLESTON     MOSUNNY   82  75  79 E7        29.98S
BEAUFORT MCAS  PTSUNNY   82  76  81 NE6       29.99R
HILTON HEAD    MOSUNNY   82  75  78 N6        29.99R

.........CENTRAL SC.........

CITY           SKY/WX    TMP DP  RH WIND       PRES   REMARKS
COLUMBIA       PTSUNNY   80  72  76 CALM      30.01R
ORANGEBURG     MOSUNNY   81  74  79 E6        30.01R
SUMTER SHAW    SUNNY     81  71  73 E6        30.00R

.........WESTERN SC.........

CITY           SKY/WX    TMP DP  RH WIND       PRES   REMARKS
GREENVILLE     NOT AVBL
ROCK HILL      CLOUDY    76  74  93 S5        30.05R
ANDERSON       SUNNY     79  73  82 E7        30.03R
CLEMSON        NOT AVBL
GREENWOOD      MOSUNNY   77  75  93 CALM      30.04R


...................COASTAL AND OFFSHORE REPORTS..................

................LOCAL PIERS AND NC RESERVE................


STATION/POSITION TIME  SKY/WX   TEMP    WIND        PRES    VSBY
                                AIR SEA DIR/SP/G
                 (UTC)          (F)     (DEG/KT/KT) (MB)    (MI)
JOHNY MRCER PIER 1200            81 85   70/ 11/ 12 1014.7R
NC RESRV MASNBRO NOT AVBL
OCEAN CREST PIER NOT AVBL
SPRINGMAID  PIER 1200            79 85  340/  3/  5 1015.0S


................COASTAL AND OFFSHORE BUOYS................


STATION/POSITION TIME  SKY/WX   TEMP    WIND        PRES    VSBY
                                AIR SEA DIR/SP/G
                 (UTC)          (F)     (DEG/KT/KT) (MB)    (MI)
DIMNDSHOAL 41025 NOT AVBL
CAPE LOOKOUT     1300            81      70/ 11/ 12 1015.3R
ONSLOW BAY 41036 NOT AVBL
5 WRITEBCH 41038 1208            81 81   80/ 12/ 16 1014.9R
MASONBORO  41110 1219               81                N/A
WVE H/P(F/S)=  3/ 7 WND WVE H/P(F/S)=  3/ 7

WILM HARBR 41108 1211               82                N/A
WVE H/P(F/S)=  3/ 7 WND WVE H/P(F/S)=  3/ 7

27WRITEBCH 41037 1200            79 82   70/ 12/ 16   N/A
FRYING PAN 41013 1250            83 84   60/ 14/ 16 1014.8R
WVE H/P(F/S)=  4/ 7 WND WVE H/P(F/S)=  3/ 6 SWL H/P/D(F/S/D)=  2/150/ 7

SUNST NRSH 41024 1208            80      50/  8/ 10 1015.0R
CAPRS NRSH 41029 1208            82      60/ 10/ 14 1014.9R
EDISTO     41004 1250            83 84   60/ 10/ 12 1014.2R
WVE H/P(F/S)=  3/ 7 WND WVE H/P(F/S)=  2/ 4 SWL H/P/D(F/S/D)=  2/ 7



..........OFFSHORE BUOYS BEYOND 100 NM OFFSHORE...........
.....IN A TRIANGLE---HAT TO BERMUDA TO BAHAMAS TO HAT.....


STATION/POSITION TIME  SKY/WX   TEMP    WIND        PRES    VSBY
                                AIR SEA DIR/SP/G
                 (UTC)          (F)     (DEG/KT/KT) (MB)    (MI)
150E HAT   41001 1200            80 83  100/ 10/ 14 1016.9R
W BERMUDA  41048 1250            81 81  240/ 12/ 14 1016.7R
WVE H/P(F/S)=  4/ 7 WND WVE H/P(F/S)=  2/ 5 SWL H/P/D(F/S/D)=  3/250/ 7

ATLANTIC S 41049 1250            82 85  180/  8/  8 1020.1R
WVE H/P(F/S)=  4/ 8 SWL H/P/D(F/S/D)=  3/150/ 8

E BAHAMAS  41046 1250            84 85  100/  8/ 10 1019.2R
WVE H/P(F/S)=  3/ 8 WND WVE H/P(F/S)=  2/ 3 SWL H/P/D(F/S/D)=  3/130/ 8

NE BAHAMAS 41047 1250            83 84  200/ 12/ 12 1018.1R
WVE H/P(F/S)=  3/ 7 WND WVE H/P(F/S)=  2/ 5 SWL H/P/D(F/S/D)=  3/160/ 7

120E CANVRL41010 1220            83 84  230/ 17/ 21 1013.3R

END



USA.gov is the U.S. government's official web portal to all federal, state and local government web resources and services.